Find Local Weather

World > North America > United States > Kentucky

Brandenburg, Kentucky Regional Weather

Lat: 38.00N, Lon: 86.18W
Wx Zone: KYZ025
Feedback
Expires:201807231600;;931251
ASUS43 KLMK 231510
RWRKY 
KENTUCKY REGIONAL WEATHER ROUNDUP
NATIONAL WEATHER SERVICE LOUISVILLE KY
1100 AM EDT MON JUL 23 2018

NOTE "FAIR" INDICATES FEW OR NO CLOUDS BELOW 12,000 FEET
WITH NO SIGNIFICANT WEATHER AND/OR OBSTRUCTIONS TO VISIBILITY.


KYZ024-025-028>034-038-045-046-053-231600-
NORTH CENTRAL KENTUCKY
  
CITY           SKY/WX    TMP DP  RH WIND       PRES   REMARKS
LOUISVILLE/SDF PTSUNNY   74  63  68 N9        29.89S                  
LOUISVILLE/LOU PTSUNNY   73  65  75 VRB6      29.90S                  
FORT KNOX      FAIR      72  63  73 N9        29.91R                  
$$


SKY/WX - Weather  TMP - Temperature  DP - Dewpoint  RH - Relative Humidity
WIND - Wind Direction/Speed PRES - Barometric Pressure